Location: Asheville, NC
(35.6000°N, 82.5500°W)
Time: 03:26:19
(UTC-04:00)

AAUSAT CUBESAT 2 - Pass Details

Date: 13 March 2018
Orbit: 576 x 592 km, 97.5° (Epoch: 17 June)

Event Time Altitude Azimuth Distance (km) Brightness Sun altitude
Rises 20:04:34 0° 151° (SSE) 2,780 ? -6.6°
Reaches altitude 10° 20:06:47 10° 144° (SE) 1,888 ? -7.1°
Maximum altitude 20:10:39 42° 74° (ENE) 838 ? -7.8°
Drops below altitude 10° 20:14:33 10° 3° (N) 1,910 ? -8.6°
Sets 20:16:48 0° 357° (N) 2,818 ? -9.1°
